Search for airport 
image banner adimage banner adimage banner ad
image banner ad

46PA - Upmc St Margaret

Located in Pittsburgh, United States

ICAO - 46PA, IATA -

Data provided by Airmate  

General information

Coordinates: N40°29'19" W79°53'43"
Elevation is 761 feet MSL.
Magnetic variation is -08° East
View others Airports in Pennsylvania

Operational data

Special qualification required
Current time UTC:
Current local time:
Weather at : KAGC - Allegheny County ( 15 km )
METAR: KAGC 091714Z 06007KT 4SM -RA BR BKN005 OVC050 05/04 A2986 RMK AO2 PRESFR P0003 T00500044
TAF: KAGC 091456Z 0915/1012 10010KT P6SM VCSH SCT007 OVC040 TEMPO 0915/0918 4SM -SHRA FM091800 08008KT 3SM SHRA OVC007 FM092300 01005KT 4SM -SHRA OVC009 FM100500 35006KT 5SM BR OVC004 FM101000 32006KT P6SM BKN010
View NOTAMs / SUP AIP / TFR affecting this airport [VIEW]
Communications frequencies: [VIEW]

Runways:

Airport contact information

Address: Pittsburgh United States

Satellite view of 46PA